TimeCDT,TemperatureF,Dew PointF,Humidity,Sea Level PressureIn,VisibilityMPH,Wind Direction,Wind SpeedMPH,Gust SpeedMPH,PrecipitationIn,Events,Conditions,WindDirDegrees,DateUTC
12:55 AM,69.6,68.5,96,30.19,10.0,North,5.8,-,N/A,,Clear,360,2012-10-13 05:55:00
1:55 AM,69.1,67.8,96,30.19,10.0,North,4.6,-,N/A,,Clear,360,2012-10-13 06:55:00
2:55 AM,68.7,68.4,99,30.18,10.0,North,3.5,-,N/A,,Clear,360,2012-10-13 07:55:00
3:55 AM,69.3,68.4,97,30.18,10.0,NE,3.5,-,N/A,,Clear,40,2012-10-13 08:55:00
4:55 AM,68.0,67.3,98,30.19,10.0,ENE,5.8,-,N/A,,Clear,60,2012-10-13 09:55:00
5:55 AM,67.3,66.6,98,30.21,10.0,NE,5.8,-,N/A,,Clear,50,2012-10-13 10:55:00
6:55 AM,66.4,66.0,99,30.22,10.0,NE,5.8,-,N/A,,Clear,50,2012-10-13 11:55:00
7:55 AM,69.3,66.6,91,30.24,10.0,ENE,6.9,-,N/A,,Clear,60,2012-10-13 12:55:00
8:55 AM,72.0,68.0,87,30.25,10.0,ENE,9.2,-,N/A,,Clear,70,2012-10-13 13:55:00
9:55 AM,75.9,70.2,82,30.25,10.0,East,8.1,-,N/A,,Clear,80,2012-10-13 14:55:00
10:55 AM,79.0,72.3,80,30.25,10.0,East,10.4,-,N/A,,Clear,80,2012-10-13 15:55:00
11:55 AM,81.9,73.4,75,30.24,10.0,ESE,9.2,-,N/A,,Clear,120,2012-10-13 16:55:00
12:55 PM,81.7,73.2,75,30.21,10.0,ESE,10.4,-,N/A,,Clear,110,2012-10-13 17:55:00
1:55 PM,82.0,73.4,75,30.18,10.0,ESE,6.9,-,N/A,,Scattered Clouds,120,2012-10-13 18:55:00
2:55 PM,81.5,73.2,76,30.16,10.0,East,5.8,-,N/A,,Mostly Cloudy,90,2012-10-13 19:55:00
3:55 PM,81.3,72.5,74,30.16,10.0,East,8.1,-,N/A,,Partly Cloudy,100,2012-10-13 20:55:00
4:55 PM,80.6,71.1,73,30.16,10.0,ESE,4.6,-,N/A,,Scattered Clouds,110,2012-10-13 21:55:00
5:55 PM,77.9,70.7,78,30.17,10.0,East,3.5,-,N/A,,Clear,80,2012-10-13 22:55:00
6:55 PM,73.9,70.0,87,30.17,10.0,East,3.5,-,N/A,,Partly Cloudy,90,2012-10-13 23:55:00
7:55 PM,73.2,70.7,92,30.18,10.0,ENE,3.5,-,N/A,,Clear,60,2012-10-14 00:55:00
8:55 PM,73.4,70.3,90,30.18,10.0,East,4.6,-,N/A,,Clear,80,2012-10-14 01:55:00
9:55 PM,72.5,69.3,90,30.18,10.0,ENE,3.5,-,N/A,,Clear,70,2012-10-14 02:55:00
10:55 PM,70.7,68.4,92,30.19,10.0,Variable,5.8,-,N/A,,Clear,0,2012-10-14 03:55:00
11:55 PM,69.8,67.6,93,30.17,10.0,East,5.8,-,N/A,,Clear,80,2012-10-14 04:55:00